Waarnemingen

Advertentie
Mijn weer
Falsterbo A, Zweden (2615): temperatuur & dauwpunt: 10.12.2017 12:00:00 - 16.12.2017 12:00:00 (CET)Falsterbo A, Zweden (2615): windsnelheid & windstoten: 10.12.2017 12:00:00 - 16.12.2017 12:00:00 (CET)Falsterbo A, Zweden (2615): windrichting: 10.12.2017 12:00:00 - 16.12.2017 12:00:00 (CET)Falsterbo A, Zweden (2615): luchtdruk: 10.12.2017 12:00:00 - 16.12.2017 12:00:00 (CET)Falsterbo A, Zweden (2615): zicht: 10.12.2017 12:00:00 - 16.12.2017 12:00:00 (CET)Falsterbo A, Zweden (2615): neerslag: 10.12.2017 12:00:00 - 16.12.2017 12:00:00 (CET)
Datum & Tijd tt [°C] td [°C] ff [km/u] ff [kn] fx [km/u] fx [kn] dd ppp [hPa] vv [km] rr [mm]
16.12.2017 12:00:00 3,2 0,2 31 17 41 22 WNW 1001,3 50 0,0
16.12.2017 11:00:00 3,2 -0,1 30 16 36 19 WNW 1001,2 50 0,0
16.12.2017 10:00:00 3,1 1,5 30 16 39 21 WNW 1000,4 42 0,0
16.12.2017 09:00:00 3,3 1,0 28 15 38 20 WNW 999,6 50 0,0
16.12.2017 08:00:00 3,1 1,1 31 17 42 23 WNW 999,0 42 0,0
16.12.2017 07:00:00 3,4 1,8 30 16 41 22 W 998,3 39 0,0
16.12.2017 06:00:00 3,3 1,2 32 17 40 22 W 998,0 49 0,0
16.12.2017 05:00:00 3,8 1,8 32 17 44 24 W 997,8 39 0,0
16.12.2017 04:00:00 4,2 2,9 33 18 42 23 WZW 997,6 32 0,0
16.12.2017 03:00:00 3,9 2,7 32 17 40 22 WZW 997,4 46 0,0
16.12.2017 02:00:00 3,7 2,7 26 14 32 18 ZW 997,3 47 0,0
16.12.2017 01:00:00 3,3 2,3 20 11 36 20 WZW 997,2 21 0,0
16.12.2017 00:00:00 3,3 2,0 32 17 44 24 W 997,0 29 0,0
15.12.2017 23:00:00 3,7 2,7 26 14 30 16 W 996,8 17 0,0
15.12.2017 22:00:00 4,1 2,8 22 12 27 15 W 996,7 29 0,0
15.12.2017 21:00:00 4,0 2,7 22 12 27 15 W 996,3 26 0,0
15.12.2017 20:00:00 4,0 2,2 23 12 31 17 W 995,9 50 0,0
15.12.2017 19:00:00 4,2 2,2 25 14 32 17 W 995,6 50 0,0
15.12.2017 18:00:00 4,1 2,5 24 13 34 18 W 995,1 45 0,1
15.12.2017 17:00:00 4,5 2,5 29 16 33 18 W 994,9 44 0,0
15.12.2017 16:00:00 4,0 2,5 17 9 27 15 NW 994,3 42 0,0
15.12.2017 15:00:00 4,6 2,1 24 13 34 19 WNW 993,6 50 0,0
15.12.2017 14:00:00 4,6 2,3 30 16 40 21 W 993,1 38 0,0
15.12.2017 13:00:00 4,7 2,7 29 15 36 19 W 992,6 31 0,0
15.12.2017 12:00:00 4,4 3,1 28 15 39 21 W 992,2 14 0,0
15.12.2017 11:00:00 4,1 3,1 30 16 42 23 WZW 991,9 12 0,2
15.12.2017 10:00:00 4,0 2,8 31 17 41 22 WZW 991,4 11 0,0
15.12.2017 09:00:00 4,2 2,9 36 19 46 25 WZW 990,4 13 0,0
15.12.2017 08:00:00 4,2 2,9 33 18 43 23 ZW 989,8 13 0,0
15.12.2017 07:00:00 4,0 2,5 38 20 45 25 ZW 989,2 16 0,0
15.12.2017 06:00:00 4,3 2,3 37 20 48 26 ZW 988,7 33 0,0
15.12.2017 05:00:00 4,1 1,6 37 20 50 27 WZW 988,5 42 0,0
15.12.2017 04:00:00 4,3 2,2 40 21 49 27 WZW 987,9 28 0,0
15.12.2017 03:00:00 4,4 2,3 41 22 54 29 ZW 987,5 30 0,0
15.12.2017 02:00:00 4,4 2,4 42 23 55 30 ZW 987,1 29 0,0
15.12.2017 01:00:00 4,2 2,1 44 24 57 31 WZW 986,8 32 0,0
15.12.2017 00:00:00 4,3 2,3 44 24 56 31 WZW 986,4 38 0,0
14.12.2017 23:00:00 4,2 2,4 46 25 60 33 WZW 986,0 31 0,0
14.12.2017 22:00:00 4,2 2,4 44 24 61 33 WZW 985,7 37 0,0
14.12.2017 21:00:00 4,0 2,0 48 26 64 35 WZW 985,6 47 0,0
14.12.2017 20:00:00 3,9 1,9 50 27 62 34 WZW 985,1 44 0,0
14.12.2017 19:00:00 4,2 2,2 49 26 62 33 WZW 984,7 50 0,0
14.12.2017 18:00:00 3,9 1,9 53 29 66 36 WZW 984,1 45 0,0
14.12.2017 17:00:00 4,1 2,1 54 29 72 39 WZW 983,8 45 0,0
14.12.2017 16:00:00 4,5 2,5 53 28 67 36 WZW 983,3 45 0,0
14.12.2017 15:00:00 4,7 2,7 46 25 67 36 WZW 982,6 31 0,0
14.12.2017 14:00:00 5,1 2,6 52 28 71 38 WZW 981,7 34 0,0
14.12.2017 13:00:00 5,5 2,8 53 29 71 39 WZW 981,1 33 0,0
14.12.2017 12:00:00 5,2 2,9 52 28 66 36 WZW 980,4 43 0,0
14.12.2017 11:00:00 4,6 3,1 53 28 68 37 WZW 979,8 49 0,0
14.12.2017 10:00:00 3,2 2,2 50 27 66 36 W 979,2 19 0,0
14.12.2017 09:00:00 3,1 1,9 32 18 44 24 WZW 978,1 34 0,4
14.12.2017 08:00:00 2,8 2,2 28 15 42 23 ZZW 977,9 17 0,1
14.12.2017 07:00:00 2,7 2,1 35 19 48 26 Z 978,3 24 0,9
14.12.2017 06:00:00 2,0 1,3 41 22 51 27 ZZO 979,6 9 1,4
14.12.2017 05:00:00 3,4 2,2 40 22 50 27 ZZO 980,5 19 0,3
14.12.2017 04:00:00 3,5 2,2 39 21 49 27 Z 981,9 44 0,0
14.12.2017 03:00:00 3,4 2,4 35 19 49 27 Z 982,9 37 0,0
14.12.2017 02:00:00 3,6 2,7 36 20 45 25 Z 983,9 33 0,0
14.12.2017 01:00:00 3,6 2,6 36 20 55 30 ZZW 985,0 44 0,0
14.12.2017 00:00:00 3,5 2,5 44 24 56 31 Z 986,2 50 0,0
13.12.2017 23:00:00 3,2 2,3 45 24 62 33 Z 987,3 46 0,0
13.12.2017 22:00:00 3,0 2,3 49 26 68 37 Z 988,5 37 0,0
13.12.2017 21:00:00 3,1 2,4 52 28 69 37 Z 990,0 29 0,1
13.12.2017 20:00:00 3,0 2,3 50 27 71 38 Z 991,4 17 0,3
13.12.2017 19:00:00 3,1 2,2 53 29 67 36 Z 993,0 16 0,4
13.12.2017 18:00:00 3,0 1,7 51 27 68 37 Z 994,4 23 0,0
13.12.2017 17:00:00 3,4 1,4 50 27 69 37 Z 995,6 36 0,0
13.12.2017 16:00:00 3,6 0,8 51 28 66 35 Z 997,0 50 0,0
13.12.2017 15:00:00 3,6 0,8 46 25 67 36 Z 998,0 50 0,0
13.12.2017 14:00:00 3,6 0,9 51 28 68 37 Z 999,3 48 0,0
13.12.2017 13:00:00 3,5 0,9 49 26 65 35 Z 1000,8 43 0,0
13.12.2017 12:00:00 3,5 0,9 47 26 67 36 Z 1002,2 38 0,0
13.12.2017 11:00:00 3,5 0,9 48 26 66 36 ZZW 1003,3 33 0,0
13.12.2017 10:00:00 3,6 0,8 48 26 64 34 ZZW 1004,4 36 0,0
13.12.2017 09:00:00 3,2 0,8 44 24 60 33 ZZW 1005,1 32 0,0
13.12.2017 08:00:00 2,7 -0,1 46 25 65 35 ZW 1005,7 27 0,0
13.12.2017 07:00:00 2,6 0,0 46 25 62 33 ZW 1006,3 26 0,0
13.12.2017 06:00:00 2,9 0,5 48 26 67 36 ZW 1006,3 30 0,0
13.12.2017 05:00:00 3,4 1,3 50 27 66 36 ZW 1006,3 26 0,0
13.12.2017 04:00:00 3,6 1,8 51 28 68 37 ZW 1006,3 21 0,0
13.12.2017 03:00:00 3,9 1,9 51 28 65 35 WZW 1006,0 29 0,0
13.12.2017 02:00:00 4,0 2,2 47 26 64 34 ZW 1005,8 25 0,0
13.12.2017 01:00:00 3,9 2,1 45 25 54 29 ZW 1005,5 34 0,0
13.12.2017 00:00:00 4,1 1,8 43 23 52 28 ZW 1005,4 49 0,0
12.12.2017 23:00:00 3,6 1,2 43 23 53 29 WZW 1005,2 50 0,0
12.12.2017 22:00:00 2,6 0,2 37 20 46 25 WZW 1005,0 50 0,0
12.12.2017 21:00:00 2,7 -0,4 38 20 53 29 W 1004,4 50 0,0
12.12.2017 20:00:00 3,0 -1,2 43 23 58 32 W 1003,3 43 0,0
12.12.2017 19:00:00 2,9 -1,5 48 26 65 35 WNW 1001,9 50 0,0
12.12.2017 18:00:00 2,5 0,7 41 22 63 34 NW 1000,8 32 0,0
12.12.2017 17:00:00 3,2 -0,8 39 21 62 33 NW 999,0 50 0,0
12.12.2017 16:00:00 3,0 0,2 50 27 61 33 NW 997,1 50 0,0
12.12.2017 15:00:00 3,1 1,0 40 21 56 30 NW 995,3 50 0,0
12.12.2017 14:00:00 3,1 0,8 45 24 55 30 NW 993,6 45 0,0
12.12.2017 13:00:00 2,8 1,0 45 24 56 30 NW 992,2 50 0,0
12.12.2017 12:00:00 2,6 1,1 41 22 49 26 NW 990,4 50 0,0
12.12.2017 11:00:00 2,7 1,8 33 18 41 22 NW 989,3 50 0,0
12.12.2017 10:00:00 2,4 1,8 30 16 37 20 NW 987,6 36 0,0
12.12.2017 09:00:00 2,5 2,1 29 16 35 19 NW 986,5 32 0,0
12.12.2017 08:00:00 2,6 2,2 25 13 31 17 NNW 985,5 22 0,0
12.12.2017 07:00:00 2,7 2,4 23 12 28 15 NNW 984,5 19 0,2
12.12.2017 06:00:00 2,5 2,2 15 8 21 11 N 984,2 6 0,2
12.12.2017 05:00:00 2,3 2,0 13 7 21 11 N 983,8 9 0,1
12.12.2017 04:00:00 1,7 1,4 13 7 17 9 N 983,6 7 0,0
12.12.2017 03:00:00 1,6 1,3 10 5 16 9 NNO 983,8 8 0,4
12.12.2017 02:00:00 1,4 1,0 11 6 19 11 NO 983,9 8 0,5
12.12.2017 01:00:00 0,9 0,5 10 6 19 10 NO 984,5 6 1,0
12.12.2017 00:00:00 0,9 0,5 13 7 23 12 ONO 985,3 4,7 1,0
11.12.2017 23:00:00 2,1 1,7 11 6 21 11 OZO 985,6 7 1,1
11.12.2017 22:00:00 2,4 2,0 16 9 27 15 ZO 985,7 10 1,4
11.12.2017 21:00:00 2,0 1,4 22 12 32 18 ZO 985,9 6 1,5
11.12.2017 20:00:00 2,1 1,5 26 14 36 19 O 985,1 6 1,0
11.12.2017 19:00:00 1,0 0,1 14 8 24 13 ONO 986,8 8 0,7
11.12.2017 18:00:00 1,3 0,0 16 8 32 18 NO 986,7 15 0,1
11.12.2017 17:00:00 1,1 -0,4 19 10 33 18 NO 986,5 26 0,0
11.12.2017 16:00:00 1,1 -0,7 20 11 29 15 NO 987,2 14 0,0
11.12.2017 15:00:00 1,2 -0,7 18 10 28 15 NO 987,7 41 0,0
11.12.2017 14:00:00 1,1 -1,0 17 9 28 15 NNO 987,2 42 0,0
11.12.2017 13:00:00 1,2 -0,9 15 8 27 14 NNO 988,1 29 0,0
11.12.2017 12:00:00 1,0 -0,9 16 8 31 17 NNO 987,5 39 0,0
11.12.2017 11:00:00 0,9 -1,0 16 8 35 19 NNO 987,5 36 0,0
11.12.2017 10:00:00 0,7 -1,1 23 13 35 19 NNO 985,5 47 0,0
11.12.2017 09:00:00 0,7 -1,1 18 10 29 16 NNO 986,6 41 0,0
11.12.2017 08:00:00 0,4 -0,9 18 10 32 17 NNO 986,2 36 0,0
11.12.2017 07:00:00 0,1 -1,2 18 10 34 18 NNO 984,7 4,3 0,1
11.12.2017 06:00:00 0,5 -1,9 19 10 32 17 NO 984,1 9 0,1
11.12.2017 05:00:00 0,2 -1,9 16 9 47 26 NO 983,6 9 0,3
11.12.2017 04:00:00 1,6 -2,2 35 19 50 27 O 983,1 16 0,0
11.12.2017 03:00:00 2,1 -3,8 35 19 48 26 O 982,8 50 0,0
11.12.2017 02:00:00 2,1 -3,0 28 15 40 22 OZO 982,9 50 0,0
11.12.2017 01:00:00 1,9 -3,4 21 11 33 18 OZO 983,0 50 0,0
11.12.2017 00:00:00 1,1 -2,8 21 11 29 16 ZO 983,6 50 0,0
10.12.2017 23:00:00 1,5 -2,3 23 12 40 21 ZZO 983,8 50 0,0
10.12.2017 22:00:00 1,7 -2,8 30 16 44 24 ZZO 984,2 50 0,0
10.12.2017 21:00:00 1,6 -2,0 32 17 46 25 ZZO 984,6 44 0,0
10.12.2017 20:00:00 1,7 -1,2 31 17 44 24 ZZO 985,1 16 0,1
10.12.2017 19:00:00 1,9 -1,9 33 18 46 25 ZZO 985,5 49 0,0
10.12.2017 18:00:00 1,9 -1,9 31 17 45 24 ZO 986,4 47 0,0
10.12.2017 17:00:00 2,2 -2,9 35 19 48 26 Z 987,1 50 0,0
10.12.2017 16:00:00 2,3 -2,4 34 18 45 24 Z 987,5 45 0,0
10.12.2017 15:00:00 2,4 -1,4 37 20 50 27 Z 988,0 50 0,0
10.12.2017 14:00:00 2,3 -0,1 26 14 44 24 ZZW 988,9 44 0,0
10.12.2017 13:00:00 2,3 -1,1 36 19 51 28 ZW 990,0 50 0,0
10.12.2017 12:00:00 3,0 -1,2 37 20 51 28 ZW 990,7 50 0,0

tt = temperatuur
td = dauwpunt
ff = windsnelheid
fx = windstoten
dd = windrichting
ppp = luchtdruk
vv = zicht
rr = neerslag

Weerstations in de omgeving